Location: Cambridge Place
(41.6311°N, 88.1661°W)
Time: 05:19:15
(UTC+00:00)

Daily predictions for brighter satellites

Satellite Brightness Start Highest point End
(mag) Time Altitude Azimuth Time Altitude Azimuth Time Altitude Azimuth
Nadezhda 3 Rocket 4.5 01:50:19 10° SSW 01:56:24 66° W 02:02:33 10° N
Cosmos 2285 Rocket 4.4 01:50:37 10° S 01:56:43 47° ESE 02:02:49 10° NNE
Cosmos 2263 Rocket 2.4 01:54:47 10° NNW 02:00:27 61° ENE 02:06:04 10° SE
Cosmos 1452 Rocket 4.5 01:56:04 10° SSE 02:00:27 27° E 02:04:51 10° NE
Cosmos 2151 Rocket 3.6 01:56:36 10° N 02:01:01 76° E 02:05:24 10° SSE
Resurs 01 Rocket 2.2 01:57:28 10° SE 02:01:35 41° ENE 02:05:44 10° N
Cosmos 2056 Rocket 3.6 02:00:19 10° SSW 02:05:30 89° WNW 02:10:49 10° NNE
IGS 5A 4.0 02:02:46 10° SE 02:06:41 42° ENE 02:10:37 10° N
Lacrosse 5 2.5 02:03:27 10° NW 02:08:21 47° NE 02:13:15 10° ESE
Cosmos 1238 4.5 02:08:20 10° S 02:11:55 56° E 02:14:59 10° NNE
SPOT 1/Viking Rocket 4.5 02:07:24 10° SE 02:11:56 33° ENE 02:16:29 10° N
Cosmos 407 Rocket 4.0 02:07:05 10° NNW 02:12:20 64° WSW 02:17:30 10° S
ERS-2 3.5 02:14:08 10° N 02:17:36 43° WNW 02:21:04 10° SW
Cosmos 1842 3.6 02:14:45 10° SSW 02:18:40 72° W 02:22:37 10° N
Cosmos 1339 Rocket 4.5 02:12:52 10° S 02:19:05 83° E 02:25:15 10° N
Cosmos 1674 Rocket 3.7 02:16:53 10° S 02:21:17 79° W 02:25:41 10° N
Cosmos 1420 Rocket 4.0 02:18:40 10° SSW 02:23:50 86° ESE 02:29:04 10° NNE
Cosmos 1190 Rocket 4.4 02:19:27 10° NNW 02:24:43 67° WSW 02:29:58 10° S
ERS-1 Rocket 4.5 02:24:39 10° ESE 02:28:28 22° ENE 02:32:18 10° NNE
Genesis I 3.3 02:24:58 10° SW 02:28:47 80° NW 02:32:43 10° NNE
Cosmos 2219 Rocket 4.0 02:29:35 10° ESE 02:31:11 11° E 02:32:48 10° E
Landsat 7 3.8 02:29:13 10° SSE 02:33:57 76° ENE 02:38:43 10° N
NOSS 3-2 (C) 3.7 02:32:04 10° SW 02:37:35 71° NW 02:43:57 10° NNE
Cosmos 1470 2.8 02:33:58 10° N 02:37:57 86° W 02:41:53 10° S
SPOT 3 Rocket 3.5 02:34:07 10° SSE 02:39:16 86° ENE 02:44:29 10° NNW
ARIANE 5 R/B 3.7 02:36:13 14° SE 02:39:24 32° ENE 02:43:22 10° N
Cosmos 1674 3.5 02:41:23 17° SSE 02:43:41 32° E 02:47:02 10° NNE
ATLAS 3B R/B 3.6 02:39:16 11° SSE 02:43:57 24° ESE 02:49:03 10° ENE
CZ-2C R/B 3.8 02:41:32 10° NNE 02:46:19 72° ESE 02:51:04 10° S
Cosmos 1315 Rocket 3.0 02:45:43 10° NNW 02:49:51 75° W 02:53:31 13° S
SL-16 R/B 2.4 02:45:25 10° SSW 02:51:04 78° WNW 02:56:47 10° NNE
Cosmos 2360 Rocket 2.4 02:46:58 10° S 02:52:21 48° ESE 02:57:46 10° NE
Cosmos 2322 Rocket 2.2 02:48:02 10° SSW 02:53:44 86° ESE 02:59:29 10° NNE
Ariane Rocket 4.5 02:52:55 10° SSW 02:57:29 33° W 03:02:05 10° NNW
Okean 1 Rocket 3.8 02:55:40 10° NNW 02:59:54 51° W 03:04:08 10° SSW
Cosmos 1726 3.1 02:57:27 10° NNW 03:00:54 42° W 03:04:15 11° SSW
Cosmos 1455 Rocket 3.4 02:58:31 10° N 03:02:53 51° E 03:05:24 23° SE
Meteor 1-16 Rocket 4.3 02:58:36 10° N 03:04:00 56° ENE 03:07:26 21° SSE
Cosmos 2100 Rocket 4.2 02:58:18 10° N 03:04:36 58° E 03:08:59 20° SSE
COSMOS 2428 4.0 03:06:54 19° ESE 03:08:15 20° E 03:12:19 10° NE
Cosmos 1758 3.7 03:04:26 10° NNW 03:08:22 59° W 03:11:20 16° S
USA 215 3.8 03:04:09 10° ENE 03:10:00 34° SE 03:15:49 10° S
BREEZE-M DEB (TANK) 3.3 03:06:57 10° NW 03:10:12 33° NNE 03:11:13 21° ENE
USA 81 4.2 03:05:56 10° N 03:11:11 71° W 03:15:44 14° S
Cosmos 1340 3.9 03:10:39 23° ESE 03:11:17 24° E 03:14:22 10° NE
Cosmos 1908 3.5 03:09:24 10° N 03:13:12 53° E 03:14:50 30° SE
Cosmos 2237 4.2 03:07:38 10° SSW 03:13:20 89° ESE 03:19:04 10° NNE
Lacrosse 5 rocket 1.1 03:12:02 10° SSW 03:15:39 52° SE 03:19:10 10° NE
Cosmos 1707 4.5 03:15:37 10° SW 03:19:06 32° WNW 03:22:37 10° NNW
Cosmos 1110 Rocket 3.9 03:15:27 13° S 03:20:04 70° ESE 03:25:16 10° NNE
Cosmos 2173 Rocket 4.0 03:17:26 10° N 03:23:50 77° E 03:28:00 23° SSE
CENTAUR R/B 4.3 03:18:41 10° WSW 03:24:09 35° NW 03:30:35 10° NNE
Cosmos 2016 Rocket 4.2 03:20:46 10° N 03:26:43 52° ENE 03:29:58 26° SE
Cosmos 1536 Rocket 4.3 03:26:46 30° SE 03:28:01 36° E 03:32:06 10° NNE
Cosmos 1844 Rocket 2.8 03:25:40 10° NNW 03:31:21 70° ENE 03:34:17 29° SE
SPOT 5 2.9 03:30:02 28° SSE 03:32:53 85° ENE 03:37:53 10° NNW
FALCON 9 DEB 4.1 03:30:09 10° WSW 03:33:29 49° NNW 03:36:49 10° NE
Meteor 2-5 Rocket 4.2 03:32:04 28° SE 03:34:12 40° E 03:39:23 10° NNE
Cosmos 1953 2.5 03:32:02 10° NNW 03:36:05 69° W 03:37:53 31° S
Resurs 01 Rocket 3.9 03:35:13 10° SW 03:38:15 18° W 03:41:17 10° NW
Cosmos 1725 Rocket 4.2 03:32:15 10° N 03:38:19 56° E 03:41:20 30° SE
Cosmos 1025 Rocket 3.0 03:37:24 28° S 03:39:43 87° W 03:44:07 10° N
SL-14 R/B 3.4 03:39:12 42° SSE 03:40:17 58° E 03:44:15 10° NNE
CARTOSAT-1 4.2 03:39:23 25° SSW 03:41:39 51° W 03:45:52 10° NNW
Terra 1.8 03:41:40 35° SSE 03:43:38 76° ENE 03:48:24 10° N
Cosmos 2263 Rocket 4.3 03:39:56 10° NW 03:43:49 19° W 03:47:42 10° SW
Cosmos 1626 2.3 03:45:06 35° SSW 03:46:30 69° W 03:50:12 10° N
Cosmos 2333 4.1 03:45:22 19° SSW 03:49:35 79° ESE 03:55:20 10° NNE
Lacrosse 5 3.0 03:46:42 10° WNW 03:51:10 32° SW 03:52:53 25° SSW
Cosmos 1802 Rocket 4.0 03:45:30 10° N 03:51:48 83° W 03:55:19 29° S
Cosmos 1461 2.8 03:51:18 10° NW 03:55:30 76° WSW 03:56:19 54° S
Cosmos 2333 Rocket 2.1 03:56:42 25° SSW 04:00:10 79° ESE 04:05:56 10° NNE
BREEZE-M DEB (TANK) 3.9 03:45:31 10° SW 04:01:06 55° SSE 04:05:14 10° ENE
DNEPR-1 R/B 4.1 03:58:07 10° NNW 04:02:13 47° NE 04:03:30 35° E
ERS-1 Rocket 3.7 04:04:36 27° SSW 04:06:57 45° W 04:11:48 10° NNW
ATLAS CENTAUR R/B 1.9 04:05:29 10° NNW 04:09:48 57° NE 04:10:56 43° ESE
SL-8 R/B 3.7 04:07:14 10° WNW 04:12:03 78° NNE 04:13:41 41° ESE
Cosmos 2219 Rocket 2.1 04:11:14 30° SSW 04:14:13 87° ESE 04:19:56 10° NNE
ARIANE 5 R/B 4.4 04:13:45 17° SW 04:15:51 24° W 04:19:29 10° NW
Cosmos 1844 3.9 04:10:26 10° NNW 04:15:56 62° WSW 04:17:50 40° S
Cosmos 389 Rocket 3.8 04:15:59 10° NNE 04:18:37 29° ENE 04:18:37 29° ENE
Meteor 2-10 Rocket 3.7 04:16:15 10° N 04:21:15 54° ENE 04:22:19 45° ESE
Meteor 1-24 Rocket 3.5 04:19:35 44° S 04:21:19 84° E 04:26:47 10° N
Cosmos 1455 4.0 04:19:16 10° NNE 04:22:07 21° ENE 04:22:07 21° ENE
Cosmos 1302 Rocket 4.2 04:23:10 28° SW 04:25:54 67° WNW 04:31:09 10° NNE
Uosat 12 SS-18 rocket 4.0 04:25:29 62° S 04:26:10 78° ESE 04:30:59 10° NE
Cosmos 1726 Rocket 4.5 04:22:24 10° N 04:26:30 34° ENE 04:26:54 34° E
Cosmos 2061 Rocket 4.4 04:20:14 10° NNW 04:26:32 58° W 04:29:35 31° SSW
ATLAS CENTAUR R/B 3.9 04:26:30 27° ESE 04:26:32 27° ESE 04:33:48 10° NE
Cosmos 2237 Rocket 2.9 04:29:30 34° ESE 04:29:41 34° ESE 04:34:41 10° NE
Spot 4 4.4 04:28:51 39° ESE 04:29:48 45° ENE 04:34:21 10° N
Cosmos 1300 3.1 04:26:22 10° NNW 04:30:06 53° W 04:30:18 52° WSW
Cosmos 1867 4.3 04:27:26 10° NNW 04:32:44 46° NE 04:34:47 32° ESE
ATLAS 3B R/B 2.9 04:27:32 10° SW 04:34:01 65° NW 04:40:44 10° NNE
Cosmos 2360 Rocket 4.2 04:31:53 10° WSW 04:36:35 26° NW 04:41:18 10° N
Cosmos 1606 Rocket 3.6 04:36:13 10° N 04:40:41 64° E 04:40:57 62° ESE
Cosmos 1892 Rocket 4.1 04:40:55 45° E 04:40:55 45° E 04:45:02 10° NNE
Cosmos 1346 Rocket 2.7 04:41:09 87° N 04:41:09 87° N 04:45:08 10° N
ALOS 2 3.7 04:41:22 31° E 04:41:54 32° ENE 04:45:48 10° N
Cosmos 967 Rocket 4.5 04:42:15 10° NNW 04:48:39 78° ENE 04:50:46 45° SE
SL-4 R/B 4.2 04:52:01 14° ENE 04:52:01 14° ENE 04:52:37 10° ENE
Cosmos 2233 Rocket 4.2 04:43:14 10° NNW 04:49:18 64° W 04:51:23 41° SSW
COBE Rocket 4.3 04:50:14 47° ESE 04:51:07 54° ENE 04:55:59 10° N
COSMOS 2428 3.2 04:48:51 26° SW 04:52:00 59° WNW 04:57:42 10° NNE
USA 215 3.5 04:46:46 10° NE 04:53:16 70° NW 04:59:45 10° WSW
Lacrosse 5 rocket 3.6 04:52:07 10° W 04:54:56 21° NNW 04:57:44 10° NNE
NOSS 0 Rocket 3.8 04:57:14 49° SSW 04:59:02 81° ESE 05:05:18 10° NNE
Cosmos 1486 Rocket 3.8 04:56:07 10° NNW 05:01:21 82° WSW 05:02:04 67° S
Cosmos 2278 Rocket 2.3 04:58:46 10° NNW 05:04:26 67° ENE 05:05:45 51° ESE
Cosmos 1703 4.1 05:11:13 43° ENE 05:11:13 43° ENE 05:14:18 10° NNE
Cosmos 1441 Rocket 4.2 05:13:00 40° NE 05:13:00 40° NE 05:15:52 10° NNE
Cosmos 968 Rocket 3.9 05:08:08 10° NNW 05:13:02 47° WSW 05:13:30 45° WSW
Cosmos 1992 Rocket 4.3 05:13:03 44° WSW 05:14:28 59° WNW 05:19:39 10° NNE
Cosmos 1354 Rocket 4.2 05:09:14 10° NNW 05:14:32 64° ENE 05:15:27 55° ESE
GEOS 3 Rocket 3.7 05:20:24 57° SSW 05:20:52 59° WSW 05:26:11 10° NW
Terra 4.3 05:20:34 10° WSW 05:21:55 11° W 05:23:16 10° WNW
USA 267 3.4 05:21:42 28° ESE 05:25:24 72° NE 05:31:55 10° NW
Cosmos 2228 4.3 05:24:43 10° NNW 05:28:34 30° W 05:28:41 30° W
Cosmos 192 4.2 05:30:24 79° SSW 05:30:42 88° WNW 05:35:39 10° NNE
BREEZE-M DEB (TANK) 4.4 05:27:37 10° WNW 05:31:01 38° N 05:39:56 10° ENE
Cosmos 1464 Rocket 4.0 05:27:15 10° N 05:33:38 80° W 05:35:08 55° S
Okean 1-7 Rocket 3.6 05:35:55 79° WNW 05:35:55 79° WNW 05:40:18 10° N
Meteor 2-1 Rocket 4.0 05:32:07 10° NNW 05:37:39 82° W 05:38:25 67° SSW
Cosmos 2346 Rocket 4.4 05:37:59 55° SSW 05:39:23 79° W 05:45:34 10° N
Cosmos 1980 4.0 05:37:59 43° WSW 05:39:39 61° WNW 05:45:18 10° NNE
Cosmos 1607 3.9 05:36:09 10° NNW 05:42:36 87° ENE 05:44:12 53° SE
Cosmos 1943 Rocket 3.7 05:42:30 10° N 05:47:19 30° NE 05:50:14 19° ESE
ATLAS CENTAUR R/B 3.8 05:45:28 10° WNW 05:47:04 15° W 05:47:04 15° W
Cosmos 1816 Rocket 4.3 05:50:46 59° S 05:52:04 88° W 05:58:14 10° N
Cosmos 2058 Rocket 3.9 05:50:43 10° NNW 05:54:38 40° W 05:54:38 40° W
Cosmos 1812 Rocket 3.9 05:52:36 10° N 05:56:46 54° ENE 05:56:46 54° ENE
Cosmos 1455 4.0 05:54:37 10° NW 05:57:00 23° WNW 05:57:00 23° WNW
Resurs 1-4 Rocket 4.4 05:58:09 10° ENE 06:00:01 12° E 06:01:20 11° ESE
Meteor 1-4 Rocket 3.7 05:59:01 10° N 06:01:22 40° N 06:01:22 40° N
USA 32 3.9 06:00:21 10° N 06:05:37 87° E 06:06:09 73° SSE
GP-B 3.1 06:02:29 10° N 06:06:48 81° NE 06:06:48 81° NE
Cosmos 2034 Rocket 4.1 06:01:05 10° NNW 06:07:09 61° W 06:08:22 51° SW
SL-16 R/B 2.1 06:07:45 66° S 06:08:29 77° ESE 06:14:11 10° NNE
CZ-2D R/B 4.2 06:06:44 10° ENE 06:09:17 14° E 06:10:33 13° ESE
USA 229 DEB 4.1 06:08:35 39° SE 06:09:18 40° ESE 06:15:26 10° NE
USA 229 4.1 06:08:42 38° SE 06:09:25 40° ESE 06:15:32 10° NE
Cosmos 2237 Rocket 3.4 06:11:17 25° WSW 06:13:40 35° WNW 06:18:49 10° N
Thor Agena Rocket 3.7 06:12:46 10° N 06:17:57 62° WNW 06:18:47 54° WSW
ALOS 2 4.3 06:18:46 23° W 06:18:46 23° W 06:21:46 10° NW
NOSS 3-1 (C) 3.0 06:18:54 66° SSE 06:19:27 72° ESE 06:25:28 10° NE
Cosmos 1408 4.1 06:20:25 29° ENE 06:20:25 29° ENE 06:23:01 10° NNE
BREEZE-M DEB (TANK) 4.1 06:20:56 47° S 06:22:40 58° SE 06:43:51 10° ENE
Cosmos 1825 Rocket 3.9 06:24:06 57° E 06:24:06 57° E 06:28:27 10° NNE
BREEZE M DEB (TANK) 4.0 06:22:37 48° S 06:24:11 59° SE 06:54:05 10° ENE
SJ 16-02 1.4 06:20:23 10° NNW 06:24:45 67° ENE 06:24:49 66° ENE
Cosmos 2369 Rocket 3.7 06:21:57 10° N 06:27:07 33° ENE 06:31:22 14° ESE
NOSS 2-3 (E) 3.7 06:29:03 62° E 06:29:03 62° E 06:33:07 10° NE
SL-4 R/B 3.4 06:27:30 28° WNW 06:28:35 33° NNW 06:31:57 10° NE
NOSS 3-1 (A) 3.5 06:28:32 46° SE 06:28:54 47° ESE 06:34:35 10° NE
Tsikada Rocket 4.3 06:28:01 44° SW 06:29:36 55° WNW 06:35:39 10° N
Cosmos 1869 4.1 06:25:42 10° N 06:29:38 44° ENE 06:29:41 44° E
SL-16 R/B 4.2 06:26:25 10° ESE 06:31:29 28° ENE 06:36:35 10° N
Cosmos 1763 Rocket 4.0 06:35:28 42° ESE 06:35:57 43° ESE 06:40:46 10° NNE
Cosmos 724 4.2 06:33:51 10° NNW 06:40:02 83° WSW 06:41:42 51° SSE
Cosmos 2058 4.4 06:40:52 26° E 06:41:07 26° E 06:44:34 10° NNE
CZ-4 R/B 3.8 06:41:01 10° NNE 06:45:40 64° ESE 06:46:04 61° SE
Meteor 1-27 4.1 06:40:43 10° NNW 06:46:18 83° W 06:47:24 59° S
Cosmos 2297 3.6 06:40:57 10° NNW 06:46:35 75° WSW 06:47:37 59° S
Cosmos 1953 Rocket 3.6 06:46:59 66° ESE 06:47:06 66° E 06:51:28 10° NNE
Cosmos 2278 Rocket 4.0 06:44:22 10° WNW 06:47:35 17° W 06:47:35 17° W
Cosmos 1892 2.9 06:53:15 65° NNW 06:53:15 65° NNW 06:56:44 10° N
Helios 1A 2.9 06:59:24 74° ESE 06:59:39 78° ENE 07:03:51 10° N
Transit 2A Rocket 4.4 07:02:58 75° W 07:03:11 79° WNW 07:07:35 10° NNE
Helios 1B rocket 3.8 07:02:00 10° NE 07:05:33 28° E 07:06:08 27° ESE
USA 267 3.9 07:09:00 33° WSW 07:09:00 33° WSW 07:14:28 10° WNW
NOSS 2-3 (D) 3.9 07:08:46 49° W 07:09:25 54° NW 07:14:01 10° NNE
Cosmos 1356 4.3 07:13:15 42° NW 07:13:15 42° NW 07:15:56 10° N
In-Cosmos 22 Rocket 4.4 07:11:54 46° SW 07:13:18 60° WNW 07:18:46 10° N
Cosmos 990 Rocket 3.8 07:15:33 10° NNW 07:20:46 84° WSW 07:22:18 47° SSE
Cosmos 841 Rocket 3.9 07:19:57 40° SSE 07:21:23 52° ESE 07:26:22 10° NNE
UNK 4.3 07:21:01 29° SE 07:23:05 52° ENE 07:27:34 10° N
Cosmos 405 Rocket 2.9 07:24:00 57° WNW 07:24:00 57° WNW 07:27:29 10° N
Cosmos 540 Rocket 3.6 07:22:33 46° SSE 07:23:53 65° ESE 07:28:57 10° NNE
Cosmos 1943 3.1 07:23:13 46° S 07:24:56 78° ESE 07:30:36 10° NNE
Cosmos 921 Rocket 3.8 07:24:19 35° SE 07:25:09 38° E 07:29:03 10° NNE
Cosmos 1898 Rocket 3.4 07:19:54 10° NNW 07:25:10 84° ENE 07:27:16 37° SSE
Cosmos-2242 4.3 07:21:39 10° NNW 07:25:10 27° W 07:25:10 27° W
Cosmos 1825 2.3 07:27:43 59° WNW 07:27:43 59° WNW 07:31:25 10° N
Lacrosse 4 Rocket 4.3 07:25:28 10° N 07:27:52 15° NE 07:30:15 10° E
Cosmos 1937 Rocket 3.8 07:24:27 10° NNW 07:29:47 67° ENE 07:32:59 24° SSE
Cosmos 2279 Rocket 4.4 07:24:31 10° NNW 07:30:28 48° W 07:32:19 37° SW
Cosmos 1603 3.6 07:28:43 45° SSW 07:30:36 90° ESE 07:36:19 10° NNE
Cosmos 1943 Rocket 2.6 07:26:02 10° NW 07:31:07 40° WSW 07:31:43 39° WSW
USA 305 4.0 07:32:36 31° SE 07:32:40 31° SE 07:36:25 10° ENE
NPP 3.8 07:29:58 10° NNE 07:35:22 69° ESE 07:37:30 37° S
Resurs 1-4 Rocket 2.0 07:35:07 10° NNE 07:40:27 85° WNW 07:42:25 41° SSW
Meteor 2-8 Rocket 4.4 07:36:00 10° N 07:42:10 88° E 07:45:34 29° S
Cosmos 1076 Rocket 3.7 07:41:45 43° SSE 07:42:56 65° E 07:47:09 10° NNE
Cosmos 1814 Rocket 4.3 07:43:19 34° SSE 07:45:25 58° ESE 07:50:30 10° NNE
Cosmos 2151 4.0 07:45:23 25° SE 07:47:13 38° E 07:51:08 10° NNE
Cosmos 1570 Rocket 4.3 07:45:18 34° S 07:47:26 60° ESE 07:52:35 10° NNE
CZ-2D R/B 2.1 07:44:40 10° N 07:49:52 72° WNW 07:51:52 38° SSW
Meteor 2-2 Rocket 4.5 07:44:07 10° NNW 07:50:03 61° W 07:52:40 34° SSW
MOZ.5/SAFIR/RUBIN 5/SL-8 4.4 07:51:57 35° WSW 07:52:35 37° W 07:57:00 10° NNW
SL-16 R/B 4.2 07:49:37 11° W 07:53:16 18° NW 07:57:06 10° N
X-37B 1.6 07:53:27 29° WNW 07:54:39 44° N 07:57:44 10° ENE
USA 306 3.3 07:53:56 41° SSE 07:54:43 46° SE 07:58:48 10° ENE
Cosmos 2221 2.6 07:50:35 10° NNW 07:54:49 58° W 07:55:44 46° SW
Meteor 1-29 3.4 07:53:01 10° NNE 07:56:22 52° E 07:57:07 42° SE
NOSS 2-2 (E) 3.0 07:56:15 55° SSE 07:56:42 63° ESE 08:00:17 10° NE
ADEOS II 2.3 07:52:24 10° NNE 07:57:38 64° ESE 08:00:27 27° S
AQUA 3.7 07:53:12 10° NNE 07:58:00 89° WNW 07:59:56 37° SSW
Cosmos 2208 Rocket 4.3 07:56:29 29° S 07:59:08 62° ESE 08:04:32 10° NNE
USA 229 DEB 4.4 07:55:59 20° WSW 08:00:09 43° NW 08:06:38 10° NNE
USA 229 4.4 07:56:06 20° WSW 08:00:15 43° NW 08:06:44 10° NNE
ARGOS Delta rocket 4.5 07:54:57 10° N 08:00:16 53° WNW 08:02:36 32° SW
Cosmos 2098 Rocket 3.9 08:00:52 32° SW 08:03:18 52° W 08:08:07 10° N
Nadezhda 4 Rocket 4.4 08:01:44 30° SW 08:04:29 48° WNW 08:10:24 10° N
Cosmos 2026 Rocket 4.0 08:02:46 25° S 08:06:37 84° E 08:12:58 10° N
SeaSat 1 3.5 08:02:45 10° NE 08:07:19 37° ESE 08:10:13 20° SSE
NOSS 2-2 (C) 3.0 08:08:55 47° S 08:09:42 66° ESE 08:13:14 10° NE
Cosmos 1606 2.7 08:06:09 10° NNW 08:09:57 60° W 08:10:56 43° SSW
Cosmos 2369 Rocket 2.8 08:05:56 10° NW 08:11:09 38° WSW 08:13:05 29° SW
Cosmos 1437 Rocket 3.8 08:09:29 10° NNW 08:12:49 27° W 08:12:58 27° W
Cosmos 372 Rocket 3.9 08:08:05 10° NNW 08:13:22 88° WSW 08:18:05 13° SSE
Cosmos 1242 Rocket 2.8 08:10:45 10° NNW 08:14:12 47° W 08:14:48 42° SW
SL-16 R/B 2.8 08:11:30 26° SSW 08:14:46 50° W 08:20:46 10° NNW
USA 290 2.1 08:15:00 52° SSW 08:15:41 85° ESE 08:18:55 10° NNE
IDEFIX/ARIANE 42P 3.2 08:11:52 10° NNE 08:16:59 50° E 08:20:56 16° S
Cosmos 1656 Rocket 3.8 08:11:46 10° NNW 08:17:19 53° WSW 08:20:52 21° S
Cosmos 2058 4.4 08:17:03 20° W 08:17:59 22° WNW 08:21:12 10° NNW
Meteor 1-28 Rocket 3.4 08:18:35 18° SSE 08:21:19 69° ENE 08:25:07 10° N
USA 281 3.7 08:16:05 10° SE 08:22:31 62° ENE 08:29:00 10° NNW
CZ-4C R/B 4.1 08:20:40 10° SE 08:23:26 15° ESE 08:26:25 10° ENE
GPS 2-04 Rocket1 3.8 08:23:33 26° S 08:23:42 26° SSE 08:26:56 10° ESE
Cosmos 1437 2.5 08:23:31 10° NNW 08:26:15 50° W 08:26:23 49° WSW
Meteor 2-15 Rocket 4.4 08:20:35 10° NNW 08:26:42 70° W 08:31:32 17° S
ATLAS 5 CENTAUR R/B 1.3 08:29:31 31° SW 08:31:21 82° NW 08:35:41 10° NNE
DELTA 2 R/B (1) 3.5 08:29:13 20° WSW 08:33:07 67° S 08:38:38 10° E
USA 307 2.8 08:34:52 26° SW 08:37:12 84° NW 08:41:28 10° NE
Cosmos 1633 3.7 08:37:09 24° WSW 08:38:07 27° WNW 08:41:12 10° NNW
Cosmos 1766 Rocket 4.2 08:35:18 13° S 08:39:07 55° E 08:43:29 10° NNE
Landsat 4 4.2 08:35:36 10° N 08:39:13 45° WNW 08:40:58 26° SW
Aureole 3 Rocket 3.9 08:36:56 10° NNW 08:40:31 34° W 08:42:55 21° SW
Okean 3 Rocket 4.1 08:36:47 13° S 08:40:37 55° E 08:44:55 10° NNE
Helios 1B rocket 4.0 08:37:24 10° NNW 08:40:39 23° WNW 08:42:26 17° WSW
ADEOS Rocket 3.5 08:35:05 10° S 08:42:23 60° W 08:49:11 10° NNW
Cosmos 2292 Rocket 2.6 08:42:36 27° SSW 08:44:07 71° W 08:47:04 10° N
Cosmos 1151 Rocket 3.6 08:41:31 10° N 08:45:43 57° E 08:49:54 10° SSE
Meteor 2-3 Rocket 3.7 08:44:04 18° SSW 08:48:21 72° W 08:53:57 10° N
IRS-1D 3.8 08:44:12 10° N 08:49:14 56° WNW 08:52:49 18° SW
USA 308 3.1 08:50:01 19° WSW 08:52:57 65° NW 08:57:11 10° NE
CBERS-1 4.1 08:47:59 10° N 08:53:05 65° WNW 08:57:05 16° SSW
Cosmos 1655 Rocket 4.2 08:49:18 10° S 08:55:28 71° E 09:01:41 10° NNE
IKONOS-2 4.4 08:51:39 10° S 08:55:51 71° WSW 09:00:04 10° NNW
Alouette 2 Rocket 3.4 08:54:41 10° N 08:58:15 75° ENE 09:02:24 10° SSE
Cosmos 1782 2.7 08:55:48 10° N 08:59:48 84° W 09:03:49 10° S
COSMOS 2441 4.5 08:55:27 10° NNE 09:00:18 77° ESE 09:05:06 10° S
CZ-4C R/B 3.0 08:57:27 11° S 09:00:49 63° W 09:04:14 10° NNW
Spot 1 4.4 08:55:53 10° SSE 09:01:01 80° WSW 09:06:01 10° NNW
ASTEX 1 3.4 08:57:59 10° S 09:02:57 80° W 09:07:55 10° N
IRS-P3 4.1 08:57:38 10° NNE 09:03:00 88° ESE 09:08:19 10° SSW
MSX 3.8 08:58:46 10° NNE 09:04:33 85° WNW 09:10:18 10° SSW
Lacrosse 4 Rocket 1.3 09:02:54 10° NW 09:06:55 58° WSW 09:10:52 10° SSE
Meteor 1-26 Rocket 4.4 09:01:46 10° NNW 09:07:32 64° W 09:13:25 10° S
NOSS 2-2 (D) 4.4 09:05:19 13° WSW 09:07:48 28° NW 09:11:02 10° NNE
USA 305 3.7 09:08:39 11° WSW 09:12:28 44° NNW 09:16:33 10° NE
BREEZE-M DEB (TANK) 3.7 09:11:02 10° NW 09:13:04 29° NNE 09:15:53 10° E
Cosmos 1812 3.1 09:11:01 10° N 09:14:51 65° E 09:18:38 10° SSE
Cosmos 2298 Rocket 4.1 09:11:02 10° NNW 09:16:16 57° WSW 09:21:27 10° S
Cosmos 1933 4.4 09:13:49 10° NNW 09:17:19 28° W 09:20:31 12° SSW
Resurs 1-4 Rocket 4.2 09:17:28 10° NW 09:19:25 12° WNW 09:21:23 10° W
Cosmos 1271 Rocket 2.6 09:17:19 10° NNW 09:21:02 77° W 09:24:47 10° S
Cosmos 2315 Rocket 4.4 09:19:11 10° N 09:25:21 68° E 09:31:31 10° SSE
Cosmos 2150 Rocket 4.3 09:24:03 10° NNW 09:29:00 46° WSW 09:34:00 10° S
X-37B 1.3 09:28:27 10° WNW 09:31:36 56° NNE 09:34:43 10° E
ERBS 2.2 09:29:30 11° SW 09:32:35 81° SE 09:35:50 10° NE
USA 306 4.2 09:30:54 10° W 09:34:46 33° NNW 09:38:38 10° NE
ADEOS II 3.8 09:33:23 10° NNW 09:36:47 18° WNW 09:40:11 10° WSW
CZ-2D R/B 3.5 09:33:05 10° N 09:37:16 69° WNW 09:41:20 10° SSW
CZ-2C R/B 2.6 09:35:12 10° NNE 09:40:13 77° ESE 09:45:01 10° S
SeaSat 1 3.6 09:40:24 10° N 09:44:43 31° NW 09:49:01 10° WSW
Meteor 1-10 Rocket 4.4 09:38:57 10° N 09:44:52 89° W 09:50:39 10° S
Cosmos 1125 Rocket 4.0 09:40:04 10° NNW 09:44:58 41° WSW 09:49:53 10° S
S3M 4.4 09:39:14 10° NNW 09:45:03 45° W 09:50:53 10° SSW
Cosmos 1500 Rocket 3.7 09:41:02 10° S 09:45:22 78° E 09:49:42 10° N
